Wind_Speed
5 6 7 8 9 11 14 16 18 20 22 24 26 27 29 32 33 34 34 35 36 37 37 37 37 37 38 38 38 39 40 40 40 40 40 39 38 37 37 36 35 34 34 35
5 6 7 8 10 12 14 16 19 21 23 25 27 28 30 32 33 34 35 36 37 38 38 38 38 38 38 38 39 39 40 40 40 39 39 38 36 35 34 33 32 31 31 32
6 7 8 8 9 11 14 16 19 21 23 25 27 28 30 32 34 35 36 37 38 39 38 38 38 38 38 38 39 39 40 40 39 39 38 36 35 33 31 30 29 29 29 29
7 8 8 9 10 12 15 17 19 21 23 26 28 29 31 33 35 36 37 38 39 39 39 39 39 38 38 38 39 40 40 39 39 38 36 35 33 31 30 28 27 27 27 26
8 9 10 9 12 14 16 17 20 22 24 26 28 30 32 34 35 36 37 38 39 40 40 39 38 38 38 39 39 39 39 39 37 36 34 33 31 29 28 26 25 24 23 22
9 10 10 10 13 15 16 18 20 22 24 26 28 30 32 34 36 37 38 39 39 40 40 39 38 38 38 38 39 39 39 38 36 35 33 31 30 29 27 25 23 21 19 18
11 12 11 12 14 16 18 20 21 23 25 26 28 30 32 34 36 37 38 39 40 40 40 39 38 38 38 38 39 39 38 37 36 34 33 31 29 28 26 24 22 20 18 16
13 13 14 14 16 17 19 20 22 23 25 26 28 30 33 35 36 37 38 39 40 40 39 39 38 38 38 38 39 39 38 37 35 34 32 31 29 27 25 24 22 20 18 15
14 14 14 15 16 18 19 21 22 23 25 26 28 30 33 34 36 37 38 39 39 40 39 39 39 38 38 38 38 39 38 36 35 33 32 31 29 27 26 24 22 21 19 16
15 14 15 15 17 18 20 21 22 24 25 27 28 31 33 34 36 37 37 38 39 39 39 39 39 38 38 38 38 39 38 36 34 33 31 30 29 27 26 25 23 22 19 16
15 16 15 15 17 18 20 21 23 24 25 27 29 31 32 34 35 37 37 38 39 39 39 38 38 38 38 38 38 38 38 36 34 32 31 30 29 28 26 25 24 22 20 16
16 17 18 18 18 19 21 22 24 25 26 27 29 30 32 34 35 37 37 38 38 38 38 38 38 38 38 37 37 37 37 36 34 32 31 30 28 27 26 25 24 22 20 17
17 18 18 19 20 21 22 23 24 25 26 27 29 30 32 34 35 37 37 38 37 38 38 38 38 38 38 37 36 37 36 36 34 31 31 30 29 27 26 24 24 23 21 18
18 19 19 20 21 22 23 24 25 25 26 28 29 31 32 33 34 36 37 37 37 37 38 38 38 38 37 36 35 35 35 35 33 31 30 30 29 27 25 24 23 22 21 19
19 20 21 21 22 23 24 25 26 26 27 28 29 31 32 33 34 35 36 37 37 37 37 37 37 37 37 36 34 34 34 34 32 31 30 30 28 27 25 24 23 22 21 20
20 21 22 22 23 24 25 25 26 27 28 29 30 31 32 33 34 35 36 37 37 37 37 37 36 36 36 35 34 33 32 32 31 30 29 29 28 26 25 23 22 21 21 20
21 22 22 23 24 24 25 26 27 28 28 29 30 31 32 33 34 35 36 36 37 37 37 37 36 35 35 35 33 31 31 30 30 29 28 27 27 25 24 23 22 22 21 21
22 23 23 24 25 26 26 27 28 29 29 30 32 32 33 33 34 35 36 36 36 37 37 37 36 35 34 34 32 30 29 29 28 28 27 26 25 24 24 22 21 21 21 21
24 25 26 26 27 28 28 29 29 30 31 32 32 33 33 34 35 35 36 36 36 36 37 37 36 34 33 32 31 29 28 27 27 26 26 25 24 23 22 22 21 21 20 20
27 28 28 29 29 30 31 31 32 32 33 33 34 34 35 35 36 36 37 37 36 36 36 36 35 34 33 31 30 28 27 26 25 25 24 23 22 21 20 20 20 20 19 19
30 31 31 32 32 33 33 33 34 34 35 35 36 36 36 37 37 37 37 37 37 36 36 35 34 34 33 31 29 27 26 25 24 23 23 22 21 20 19 19 19 18 18 18
34 34 35 35 35 35 35 35 36 37 38 38 38 38 39 39 39 39 38 37 37 37 36 35 34 33 32 31 29 27 26 25 23 22 21 21 20 19 18 17 17 16 16 16
38 37 38 39 39 38 38 38 39 40 40 40 41 41 41 41 40 40 40 39 38 37 36 35 34 33 32 30 28 27 25 24 23 21 20 19 18 18 17 16 15 14 14 14
40 41 42 43 43 42 42 42 42 43 43 43 43 43 43 42 41 40 40 39 38 37 36 35 34 32 31 29 28 26 25 23 22 20 19 18 17 16 15 15 14 13 12 12
44 45 47 47 46 46 46 46 46 46 45 45 44 44 43 42 41 40 39 39 37 36 34 33 32 31 29 28 27 25 23 22 21 20 18 17 15 15 14 14 13 12 11 11
49 50 51 51 51 50 49 48 48 48 47 47 45 44 43 42 41 40 39 38 36 35 33 32 31 30 28 27 26 25 23 21 20 19 18 16 15 14 13 13 13 12 10 10
53 54 54 54 53 53 52 51 50 50 49 48 46 44 42 41 40 39 38 36 35 33 32 31 30 30 29 27 25 24 22 20 19 18 17 16 14 14 13 13 12 12 10 9
Wind_Direction
329 330 332 341 351 357 358 357 355 353 352 350 349 348 346 345 343 341 340 338 337 335 334 333 332 330 329 328 327 326 325 323 321 318 316 314 311 307 302 297 290 285 280 275
317 319 323 329 343 349 350 350 350 350 348 347 347 348 346 344 342 341 340 340 340 339 337 336 334 332 331 330 330 329 328 327 325 322 320 319 316 311 306 301 295 289 284 279
308 312 319 325 335 339 342 344 345 344 344 344 345 346 344 343 342 342 342 342 342 341 340 338 336 335 334 334 333 332 332 331 330 327 325 323 321 318 312 306 299 294 289 285
306 308 317 327 329 334 337 338 340 340 341 343 343 343 344 343 343 343 343 343 344 343 342 340 339 339 338 337 337 336 335 335 334 332 330 329 327 324 319 313 306 300 293 289
311 314 324 332 328 330 333 336 337 338 339 340 341 342 343 343 343 343 343 344 344 344 343 342 342 342 341 340 340 340 340 339 338 337 336 335 334 332 329 324 317 310 302 296
315 317 326 331 325 326 330 333 335 335 337 338 340 341 341 342 343 344 345 345 345 345 345 344 344 343 343 343 343 343 343 343 343 342 342 341 339 338 337 334 330 324 315 306
322 323 328 328 326 324 328 329 331 333 335 336 338 339 341 342 344 345 346 346 345 345 346 346 346 345 345 346 346 346 346 346 347 347 347 346 345 344 343 341 339 336 329 318
322 322 325 325 324 323 324 326 328 330 332 334 336 338 340 342 344 345 346 346 346 346 347 347 348 348 348 348 349 350 350 350 350 350 350 350 350 350 349 348 346 344 341 334
314 316 319 320 319 318 319 323 326 328 330 332 335 337 339 341 343 344 346 346 347 348 348 349 349 349 349 350 351 352 352 352 352 353 353 353 354 354 354 353 352 349 347 342
308 311 314 315 313 314 317 321 323 326 328 331 333 336 338 341 343 344 345 347 348 349 349 349 350 350 351 351 353 354 355 355 355 355 356 357 357 357 357 357 357 356 354 353
308 310 312 314 314 315 318 320 323 325 327 329 332 335 338 340 342 343 345 347 348 349 349 350 350 351 351 352 354 355 356 357 357 358 358 359 360 0 0 1 1 1 1 359
307 310 315 318 319 320 320 322 323 325 326 329 331 334 336 339 341 343 345 346 347 348 349 350 351 352 352 353 354 356 357 359 359 0 1 1 1 2 3 5 6 7 7 8
306 309 312 315 316 318 319 321 322 324 325 328 331 333 335 337 340 343 344 346 347 348 349 350 351 352 353 354 355 357 358 360 2 3 3 4 4 4 5 7 9 11 12 13
301 304 307 310 312 314 316 319 320 322 324 327 329 331 334 336 339 342 343 345 346 347 348 349 350 352 353 354 355 357 359 1 3 4 5 6 6 7 8 9 12 15 16 18
297 300 303 306 308 312 314 317 319 321 322 324 327 330 332 335 337 340 342 344 346 347 348 348 350 351 352 354 355 356 358 1 3 4 6 7 9 10 11 12 15 17 18 20
293 296 299 302 306 309 311 314 316 318 321 323 326 329 331 333 335 337 340 343 345 346 346 347 348 349 350 352 354 355 357 360 2 4 6 8 10 12 14 16 17 18 19 20
291 294 297 300 303 305 308 311 313 316 319 321 324 326 329 331 333 335 337 340 342 343 344 345 345 347 349 350 352 353 356 358 1 3 5 7 10 12 14 16 18 19 20 20
290 292 295 297 300 303 306 309 312 314 316 318 321 323 326 328 330 332 334 337 339 340 342 343 343 344 346 348 350 352 354 356 358 1 3 6 9 11 13 14 16 17 17 18
286 289 292 295 298 301 304 306 309 311 313 315 318 320 322 324 327 329 332 334 335 337 339 341 342 342 343 345 347 349 351 353 355 357 0 3 6 9 12 14 16 17 18 18
283 287 290 293 296 299 302 304 307 309 311 312 314 317 318 320 322 325 327 330 331 333 335 337 339 340 340 341 343 345 346 348 350 352 355 358 1 4 7 11 14 16 17 19
282 285 287 289 292 295 298 300 302 305 307 309 311 313 315 316 318 320 322 325 327 328 330 332 335 337 337 337 339 341 343 345 345 347 350 353 355 358 1 5 9 12 14 17
281 283 285 287 289 291 294 297 299 301 303 305 307 309 311 312 314 315 317 318 320 322 325 327 329 331 332 333 334 336 338 340 341 342 346 348 351 354 357 0 3 8 13 16
279 280 282 285 285 286 289 293 295 297 298 300 303 304 306 308 310 311 312 313 314 317 319 321 323 325 326 328 329 331 333 335 336 337 340 343 346 349 353 357 0 5 9 13
276 277 281 284 282 283 286 289 291 293 295 297 298 300 303 304 306 307 309 310 311 313 315 317 319 319 321 324 324 325 327 330 332 333 335 336 339 342 347 351 354 359 4 9
274 276 278 280 281 282 284 285 287 289 291 294 296 298 299 300 301 303 304 306 308 309 311 313 315 316 317 320 321 322 323 324 326 328 329 331 333 335 339 343 346 348 352 357
274 275 277 278 279 280 282 284 286 288 290 292 294 296 296 297 298 299 299 300 302 304 306 308 310 311 313 315 316 316 317 318 319 321 322 323 326 328 331 335 337 337 338 342
275 276 277 278 279 280 281 283 285 286 288 290 291 291 292 293 294 294 293 295 297 298 299 301 303 305 306 309 310 311 311 311 313 315 316 316 317 318 321 324 326 328 328 327
Height
5858 5856 5855 5853 5852 5850 5848 5845 5842 5839 5835 5832 5828 5823 5817 5812 5806 5799 5793 5786 5779 5772 5764 5757 5749 5741 5734 5726 5719 5711 5703 5695 5687 5678 5671 5663 5656 5649 5643 5639 5635 5631 5629 5627
5856 5855 5854 5852 5851 5849 5846 5843 5840 5837 5834 5830 5825 5820 5815 5809 5803 5797 5790 5782 5775 5767 5759 5751 5743 5735 5727 5719 5712 5703 5695 5687 5678 5669 5661 5653 5646 5639 5632 5627 5623 5619 5616 5614
5855 5854 5853 5852 5850 5847 5845 5842 5839 5835 5833 5827 5823 5818 5813 5807 5800 5793 5786 5778 5770 5762 5754 5746 5738 5730 5722 5713 5705 5696 5688 5679 5670 5661 5653 5644 5637 5629 5623 5617 5613 5609 5605 5603
5853 5853 5851 5851 5847 5845 5842 5840 5837 5833 5829 5825 5820 5815 5810 5803 5796 5789 5782 5774 5766 5758 5749 5741 5732 5724 5716 5707 5699 5690 5681 5672 5663 5654 5645 5637 5629 5622 5615 5609 5604 5599 5596 5593
5851 5850 5849 5848 5845 5842 5840 5837 5834 5830 5826 5822 5817 5811 5806 5800 5793 5785 5778 5770 5762 5753 5745 5736 5728 5719 5711 5702 5694 5684 5675 5666 5657 5648 5639 5631 5623 5616 5609 5603 5597 5592 5587 5584
5849 5847 5846 5846 5842 5839 5838 5834 5831 5827 5823 5819 5814 5809 5804 5797 5789 5782 5774 5766 5758 5749 5741 5732 5723 5715 5707 5698 5689 5680 5670 5661 5652 5643 5635 5626 5619 5612 5605 5598 5592 5586 5582 5578
5846 5844 5843 5842 5839 5837 5835 5832 5828 5824 5820 5815 5811 5806 5800 5793 5785 5778 5770 5762 5754 5745 5737 5728 5720 5711 5702 5694 5685 5676 5666 5657 5648 5639 5631 5623 5615 5608 5601 5595 5589 5583 5578 5575
5843 5842 5842 5838 5836 5834 5831 5827 5824 5820 5816 5812 5807 5802 5796 5789 5782 5774 5766 5758 5750 5742 5733 5725 5716 5707 5699 5690 5681 5672 5663 5654 5645 5637 5629 5621 5613 5606 5599 5592 5587 5581 5576 5572
5841 5840 5838 5835 5832 5830 5827 5824 5821 5817 5813 5808 5803 5798 5792 5785 5778 5771 5763 5755 5747 5738 5730 5721 5713 5704 5696 5687 5679 5670 5660 5651 5643 5635 5627 5619 5612 5605 5598 5591 5585 5580 5575 5571
5836 5835 5833 5831 5829 5826 5823 5820 5817 5813 5809 5805 5800 5794 5788 5782 5775 5767 5760 5751 5743 5735 5726 5718 5710 5702 5693 5685 5676 5667 5658 5650 5641 5633 5626 5619 5611 5604 5597 5591 5584 5579 5574 5569
5832 5830 5829 5827 5824 5822 5819 5816 5813 5809 5805 5800 5796 5790 5784 5778 5771 5764 5756 5748 5740 5732 5724 5716 5707 5699 5691 5683 5674 5666 5657 5649 5640 5632 5625 5618 5611 5604 5597 5590 5584 5579 5574 5569
5828 5826 5824 5822 5820 5817 5814 5811 5808 5805 5801 5796 5791 5786 5780 5774 5768 5760 5753 5745 5737 5729 5721 5713 5705 5697 5689 5681 5673 5665 5656 5648 5640 5632 5625 5618 5611 5604 5597 5591 5585 5580 5574 5570
5823 5821 5819 5817 5815 5812 5810 5807 5804 5800 5796 5792 5787 5782 5776 5770 5764 5757 5749 5742 5734 5727 5719 5711 5703 5695 5687 5680 5672 5664 5656 5648 5640 5633 5626 5618 5611 5605 5598 5592 5586 5581 5576 5571
5818 5816 5814 5812 5810 5808 5805 5802 5799 5796 5792 5787 5783 5778 5772 5766 5760 5753 5746 5739 5731 5724 5716 5709 5701 5694 5686 5678 5671 5663 5656 5648 5641 5634 5626 5619 5612 5606 5600 5594 5589 5584 5579 5574
5813 5811 5810 5807 5805 5803 5800 5797 5794 5790 5787 5783 5778 5773 5767 5762 5756 5749 5743 5736 5728 5721 5714 5706 5699 5692 5685 5677 5670 5663 5656 5648 5641 5634 5628 5621 5614 5608 5602 5596 5591 5586 5582 5577
5807 5806 5804 5802 5800 5797 5795 5792 5789 5785 5781 5777 5773 5768 5763 5757 5751 5745 5739 5732 5726 5718 5711 5704 5697 5691 5683 5676 5669 5662 5656 5649 5642 5635 5629 5622 5616 5610 5605 5599 5594 5589 5585 5580
5801 5799 5798 5796 5794 5792 5789 5786 5783 5779 5776 5771 5767 5763 5758 5752 5747 5741 5735 5729 5722 5716 5709 5702 5695 5689 5682 5675 5668 5662 5655 5649 5643 5637 5630 5624 5618 5612 5607 5602 5597 5592 5587 5583
5795 5793 5791 5790 5788 5785 5782 5780 5776 5773 5769 5765 5761 5757 5752 5747 5742 5736 5731 5725 5719 5712 5706 5699 5693 5686 5680 5674 5667 5661 5655 5649 5643 5638 5632 5626 5620 5614 5609 5604 5599 5595 5590 5586
5787 5786 5784 5782 5780 5778 5775 5773 5770 5766 5763 5759 5755 5751 5746 5742 5737 5731 5726 5720 5715 5709 5703 5697 5690 5684 5678 5672 5666 5660 5654 5649 5644 5638 5633 5627 5622 5616 5611 5606 5602 5597 5592 5588
5779 5778 5776 5774 5772 5770 5767 5765 5762 5759 5756 5752 5748 5744 5740 5736 5731 5726 5721 5716 5710 5704 5699 5693 5687 5681 5675 5670 5664 5659 5653 5648 5643 5638 5633 5628 5623 5618 5613 5609 5604 5600 5595 5591
5770 5769 5768 5766 5764 5762 5759 5757 5754 5751 5748 5744 5741 5737 5733 5729 5724 5720 5715 5710 5705 5699 5694 5689 5683 5678 5672 5667 5662 5657 5651 5646 5642 5637 5633 5628 5624 5619 5615 5610 5606 5602 5597 5593
5761 5760 5758 5756 5754 5752 5750 5748 5745 5742 5739 5736 5733 5729 5725 5721 5717 5712 5708 5703 5699 5694 5689 5684 5679 5674 5669 5663 5659 5654 5649 5645 5640 5636 5632 5628 5623 5619 5615 5611 5607 5604 5600 5596
5750 5749 5747 5745 5744 5742 5740 5737 5735 5732 5730 5726 5723 5720 5716 5712 5708 5704 5700 5696 5692 5687 5682 5678 5674 5669 5664 5660 5655 5651 5646 5642 5638 5634 5630 5626 5623 5619 5615 5611 5608 5605 5601 5598
5738 5737 5735 5733 5731 5729 5728 5726 5724 5721 5719 5716 5713 5710 5707 5703 5699 5696 5692 5688 5684 5680 5676 5672 5668 5663 5659 5655 5651 5647 5643 5639 5635 5631 5628 5624 5621 5618 5615 5611 5608 5605 5602 5599
5725 5724 5722 5720 5718 5716 5715 5713 5711 5709 5707 5705 5702 5699 5696 5693 5689 5686 5682 5679 5675 5672 5668 5665 5661 5657 5653 5650 5646 5642 5639 5635 5632 5628 5625 5622 5619 5616 5613 5611 5608 5605 5603 5600
5711 5710 5708 5706 5704 5703 5701 5699 5697 5696 5694 5692 5690 5687 5684 5681 5678 5676 5672 5669 5666 5663 5660 5657 5654 5651 5647 5644 5641 5637 5634 5631 5628 5625 5622 5619 5617 5614 5612 5609 5607 5604 5602 5600
5694 5693 5691 5690 5689 5687 5685 5684 5683 5681 5680 5678 5676 5674 5672 5670 5667 5665 5662 5659 5657 5654 5652 5649 5646 5644 5641 5638 5635 5632 5629 5626 5624 5621 5619 5616 5614 5612 5609 5607 5605 5603 5601 5599